User: anonymous   Login
Location: *
(90.0000°N, 180.0000°W)
Time: 03:43:08
(UTC+02:00)
Language:

Cosmos 1825 - Orbit

View from above orbital plane
View from above orbital plane
View from above satellite
View from above satellite

Ground track
Ground track

The orbit data is extracted from the following two-line orbital elements,

1 17566U 87024A   17177.27510839 +.00000629 +00000-0 +28755-4 0  9992
2 17566 082.5059 281.1441 0004209 161.3228 198.8161 15.18694984654931
Epoch (UTC): 26 June 2017 06:36:09
Eccentricity: 0.0004209
inclination: 82.5059°
perigee height: 507 km
apogee height: 512 km
right ascension of ascending node: 281.1441°
argument of perigee: 161.3228°
revolutions per day: 15.18694984
mean anomaly at epoch: 198.8161°
orbit number at epoch: 65493

The dashed part of the orbit path shows where the satellite is in the earth's shadow,  

DLR